Time,TemperatureF,DewpointF,PressureIn,WindDirection,WindDirectionDegrees,WindSpeedMPH,WindSpeedGustMPH,Humidity,HourlyPrecipIn,Conditions,Clouds,dailyrainin,SoftwareType,DateUTC
2013-06-03 00:12:00,70.0,69.0,-100.00,South,178,0.0,0.0,96,0.00,,,0.55,,2013-06-03 05:12:00,
2013-06-03 00:22:00,70.0,69.0,-100.00,South,178,0.0,0.0,96,0.00,,,0.55,,2013-06-03 05:22:00,
2013-06-03 00:32:00,70.0,69.0,-100.00,South,178,0.0,0.0,96,0.00,,,0.55,,2013-06-03 05:32:00,
2013-06-03 00:42:00,70.0,69.0,-100.00,South,178,0.0,0.0,96,0.00,,,0.55,,2013-06-03 05:42:00,
2013-06-03 01:12:00,69.0,68.0,-100.00,NW,322,0.0,0.0,97,0.00,,,0.55,,2013-06-03 06:12:00,
2013-06-03 01:22:00,69.0,68.0,-100.00,NW,322,0.0,0.0,97,0.00,,,0.55,,2013-06-03 06:22:00,
2013-06-03 01:32:00,69.0,68.0,-100.00,NW,322,0.0,0.0,97,0.00,,,0.55,,2013-06-03 06:32:00,
2013-06-03 01:42:00,69.0,68.0,-100.00,NW,322,0.0,0.0,97,0.00,,,0.55,,2013-06-03 06:42:00,
2013-06-03 02:12:00,70.0,69.0,-100.00,NW,316,0.0,0.0,97,0.00,,,0.55,,2013-06-03 07:12:00,
2013-06-03 02:22:00,70.0,69.0,-100.00,NW,316,0.0,0.0,97,0.00,,,0.55,,2013-06-03 07:22:00,
2013-06-03 02:32:00,70.0,69.0,-100.00,NW,316,0.0,0.0,97,0.00,,,0.55,,2013-06-03 07:32:00,
2013-06-03 02:42:00,70.0,69.0,-100.00,NW,316,0.0,0.0,97,0.00,,,0.55,,2013-06-03 07:42:00,
2013-06-03 03:12:00,69.0,68.0,-100.00,NW,322,0.0,0.0,97,0.00,,,0.55,,2013-06-03 08:12:00,
2013-06-03 03:22:00,69.0,68.0,-100.00,NW,322,0.0,0.0,97,0.00,,,0.55,,2013-06-03 08:22:00,
2013-06-03 03:32:00,69.0,68.0,-100.00,NW,322,0.0,0.0,97,0.00,,,0.55,,2013-06-03 08:32:00,
2013-06-03 03:42:00,69.0,68.0,-100.00,NW,322,0.0,0.0,97,0.00,,,0.55,,2013-06-03 08:42:00,
2013-06-03 04:12:00,69.0,68.0,-100.00,NW,314,0.0,0.0,97,0.00,,,0.55,,2013-06-03 09:12:00,
2013-06-03 04:22:00,69.0,68.0,-100.00,NW,314,0.0,0.0,97,0.00,,,0.55,,2013-06-03 09:22:00,
2013-06-03 04:33:00,69.0,68.0,-100.00,NW,314,0.0,0.0,97,0.00,,,0.55,,2013-06-03 09:33:00,
2013-06-03 04:42:00,69.0,68.0,-100.00,NW,314,0.0,0.0,97,0.00,,,0.55,,2013-06-03 09:42:00,
2013-06-03 05:12:00,69.0,68.0,-100.00,NW,323,0.0,3.0,97,0.00,,,0.08,,2013-06-03 10:12:00,
2013-06-03 05:22:00,69.0,68.0,-100.00,NW,323,0.0,3.0,97,0.00,,,0.08,,2013-06-03 10:22:00,
2013-06-03 05:33:00,69.0,68.0,-100.00,NW,323,0.0,3.0,97,0.00,,,0.08,,2013-06-03 10:33:00,
2013-06-03 05:42:00,69.0,68.0,-100.00,NW,323,0.0,3.0,97,0.00,,,0.08,,2013-06-03 10:42:00,
2013-06-03 06:12:00,69.0,68.0,-100.00,NNE,30,0.0,0.0,97,0.00,,,0.03,,2013-06-03 11:12:00,
2013-06-03 06:22:00,69.0,68.0,-100.00,NNE,30,0.0,0.0,97,0.00,,,0.03,,2013-06-03 11:22:00,
2013-06-03 06:32:00,69.0,68.0,-100.00,NNE,30,0.0,0.0,97,0.00,,,0.03,,2013-06-03 11:32:00,
2013-06-03 06:42:00,69.0,68.0,-100.00,NNE,30,0.0,0.0,97,0.00,,,0.03,,2013-06-03 11:42:00,
2013-06-03 07:12:00,69.0,68.0,-100.00,North,353,0.0,0.0,97,0.00,,,0.02,,2013-06-03 12:12:00,
2013-06-03 07:22:00,69.0,68.0,-100.00,North,353,0.0,0.0,97,0.00,,,0.02,,2013-06-03 12:22:00,
2013-06-03 07:32:00,69.0,68.0,-100.00,North,353,0.0,0.0,97,0.00,,,0.02,,2013-06-03 12:32:00,
2013-06-03 07:42:00,69.0,68.0,-100.00,North,353,0.0,0.0,97,0.00,,,0.02,,2013-06-03 12:42:00,
2013-06-03 08:12:00,73.0,70.0,-100.00,NE,44,3.0,6.0,89,0.00,,,0.01,,2013-06-03 13:12:00,
2013-06-03 08:22:00,73.0,70.0,-100.00,NE,44,3.0,6.0,89,0.00,,,0.01,,2013-06-03 13:22:00,
2013-06-03 08:32:00,73.0,70.0,-100.00,NE,44,3.0,6.0,89,0.00,,,0.01,,2013-06-03 13:32:00,
2013-06-03 08:42:00,73.0,70.0,-100.00,NE,44,3.0,6.0,89,0.00,,,0.01,,2013-06-03 13:42:00,
2013-06-03 09:12:00,75.0,70.0,-100.00,North,353,4.0,6.0,84,0.00,,,0.01,,2013-06-03 14:12:00,
2013-06-03 09:22:00,75.0,70.0,-100.00,North,353,4.0,6.0,84,0.00,,,0.01,,2013-06-03 14:22:00,
2013-06-03 09:32:00,75.0,70.0,-100.00,North,353,4.0,6.0,84,0.00,,,0.01,,2013-06-03 14:32:00,
2013-06-03 09:42:00,75.0,70.0,-100.00,North,353,4.0,6.0,84,0.00,,,0.01,,2013-06-03 14:42:00,
2013-06-03 10:12:00,76.0,70.0,-100.00,NNE,14,4.0,7.0,81,0.00,,,0.00,,2013-06-03 15:12:00,
2013-06-03 10:22:00,76.0,70.0,-100.00,NNE,14,4.0,7.0,81,0.00,,,0.00,,2013-06-03 15:22:00,
2013-06-03 10:33:00,76.0,70.0,-100.00,NNE,14,4.0,7.0,81,0.00,,,0.00,,2013-06-03 15:33:00,
2013-06-03 10:43:00,76.0,70.0,-100.00,NNE,14,4.0,7.0,81,0.00,,,0.00,,2013-06-03 15:43:00,
2013-06-03 11:13:00,78.0,70.0,-100.00,NNW,344,4.0,8.0,77,0.00,,,0.00,,2013-06-03 16:13:00,
2013-06-03 11:23:00,78.0,70.0,-100.00,NNW,344,4.0,8.0,77,0.00,,,0.00,,2013-06-03 16:23:00,
2013-06-03 11:33:00,78.0,70.0,-100.00,NNW,344,4.0,8.0,77,0.00,,,0.00,,2013-06-03 16:33:00,
2013-06-03 11:42:00,78.0,70.0,-100.00,NNW,344,4.0,8.0,77,0.00,,,0.00,,2013-06-03 16:42:00,
2013-06-03 12:12:00,79.0,70.0,-100.00,NNE,17,4.0,8.0,74,0.00,,,0.00,,2013-06-03 17:12:00,
2013-06-03 12:22:00,79.0,70.0,-100.00,NNE,17,4.0,8.0,74,0.00,,,0.00,,2013-06-03 17:22:00,
2013-06-03 12:33:00,79.0,70.0,-100.00,NNE,17,4.0,8.0,74,0.00,,,0.00,,2013-06-03 17:33:00,
2013-06-03 12:42:00,79.0,70.0,-100.00,NNE,17,4.0,8.0,74,0.00,,,0.00,,2013-06-03 17:42:00,
2013-06-03 13:12:00,84.0,69.0,-100.00,ENE,57,4.0,11.0,61,0.00,,,0.00,,2013-06-03 18:12:00,
2013-06-03 13:22:00,84.0,69.0,-100.00,ENE,57,4.0,11.0,61,0.00,,,0.00,,2013-06-03 18:22:00,
2013-06-03 13:32:00,84.0,69.0,-100.00,ENE,57,4.0,11.0,61,0.00,,,0.00,,2013-06-03 18:32:00,
2013-06-03 13:42:00,84.0,69.0,-100.00,ENE,57,4.0,11.0,61,0.00,,,0.00,,2013-06-03 18:42:00,
2013-06-03 14:12:00,84.0,68.0,-100.00,NNE,20,5.0,8.0,59,0.00,,,0.00,,2013-06-03 19:12:00,
2013-06-03 14:22:00,84.0,68.0,-100.00,NNE,20,5.0,8.0,59,0.00,,,0.00,,2013-06-03 19:22:00,
2013-06-03 14:32:00,84.0,68.0,-100.00,NNE,20,5.0,8.0,59,0.00,,,0.00,,2013-06-03 19:32:00,
2013-06-03 14:42:00,84.0,68.0,-100.00,NNE,20,5.0,8.0,59,0.00,,,0.00,,2013-06-03 19:42:00,
2013-06-03 15:12:00,85.0,68.0,-100.00,East,98,3.0,5.0,56,0.00,,,0.00,,2013-06-03 20:12:00,
2013-06-03 15:22:00,85.0,68.0,-100.00,East,98,3.0,5.0,56,0.00,,,0.00,,2013-06-03 20:22:00,
2013-06-03 15:32:00,85.0,68.0,-100.00,East,98,3.0,5.0,56,0.00,,,0.00,,2013-06-03 20:32:00,
2013-06-03 15:42:00,85.0,68.0,-100.00,East,98,3.0,5.0,56,0.00,,,0.00,,2013-06-03 20:42:00,
2013-06-03 16:12:00,87.0,64.0,-100.00,NNE,26,4.0,13.0,47,0.00,,,0.00,,2013-06-03 21:12:00,
2013-06-03 16:22:00,87.0,64.0,-100.00,NNE,26,4.0,13.0,47,0.00,,,0.00,,2013-06-03 21:22:00,
2013-06-03 16:33:00,87.0,64.0,-100.00,NNE,26,4.0,13.0,47,0.00,,,0.00,,2013-06-03 21:33:00,
2013-06-03 16:43:00,87.0,64.0,-100.00,NNE,26,4.0,13.0,47,0.00,,,0.00,,2013-06-03 21:43:00,
2013-06-03 17:12:00,86.0,67.0,-100.00,East,85,6.0,10.0,54,0.00,,,0.00,,2013-06-03 22:12:00,
2013-06-03 17:22:00,86.0,67.0,-100.00,East,85,6.0,10.0,54,0.00,,,0.00,,2013-06-03 22:22:00,
2013-06-03 17:32:00,86.0,67.0,-100.00,East,85,6.0,10.0,54,0.00,,,0.00,,2013-06-03 22:32:00,
2013-06-03 17:42:00,86.0,67.0,-100.00,East,85,6.0,10.0,54,0.00,,,0.00,,2013-06-03 22:42:00,
2013-06-03 18:12:00,83.0,69.0,-100.00,NE,44,2.0,4.0,63,0.00,,,0.00,,2013-06-03 23:12:00,
2013-06-03 18:22:00,83.0,69.0,-100.00,NE,44,2.0,4.0,63,0.00,,,0.00,,2013-06-03 23:22:00,
2013-06-03 18:32:00,83.0,69.0,-100.00,NE,44,2.0,4.0,63,0.00,,,0.00,,2013-06-03 23:32:00,
2013-06-03 18:42:00,83.0,69.0,-100.00,NE,44,2.0,4.0,63,0.00,,,0.00,,2013-06-03 23:42:00,
2013-06-03 19:12:00,82.0,70.0,-100.00,NE,38,1.0,3.0,68,0.00,,,0.00,,2013-06-04 00:12:00,
2013-06-03 19:22:00,82.0,70.0,-100.00,NE,38,1.0,3.0,68,0.00,,,0.00,,2013-06-04 00:22:00,
2013-06-03 19:32:00,82.0,70.0,-100.00,NE,38,1.0,3.0,68,0.00,,,0.00,,2013-06-04 00:32:00,
2013-06-03 19:42:00,82.0,70.0,-100.00,NE,38,1.0,3.0,68,0.00,,,0.00,,2013-06-04 00:42:00,
2013-06-03 20:12:00,80.0,72.0,-100.00,NNE,28,0.0,0.0,76,0.00,,,0.00,,2013-06-04 01:12:00,
2013-06-03 20:22:00,80.0,72.0,-100.00,NNE,28,0.0,0.0,76,0.00,,,0.00,,2013-06-04 01:22:00,
2013-06-03 20:32:00,80.0,72.0,-100.00,NNE,28,0.0,0.0,76,0.00,,,0.00,,2013-06-04 01:32:00,
2013-06-03 20:42:00,80.0,72.0,-100.00,NNE,28,0.0,0.0,76,0.00,,,0.00,,2013-06-04 01:42:00,
2013-06-03 21:12:00,74.0,70.0,-100.00,ESE,113,0.0,0.0,88,0.00,,,0.00,,2013-06-04 02:12:00,
2013-06-03 21:22:00,74.0,70.0,-100.00,ESE,113,0.0,0.0,88,0.00,,,0.00,,2013-06-04 02:22:00,
2013-06-03 21:32:00,74.0,70.0,-100.00,ESE,113,0.0,0.0,88,0.00,,,0.00,,2013-06-04 02:32:00,
2013-06-03 21:42:00,74.0,70.0,-100.00,ESE,113,0.0,0.0,88,0.00,,,0.00,,2013-06-04 02:42:00,
2013-06-03 22:12:00,72.0,70.0,-100.00,SSW,199,0.0,0.0,94,0.00,,,0.00,,2013-06-04 03:12:00,
2013-06-03 22:22:00,72.0,70.0,-100.00,SSW,199,0.0,0.0,94,0.00,,,0.00,,2013-06-04 03:22:00,
2013-06-03 22:32:00,72.0,70.0,-100.00,SSW,199,0.0,0.0,94,0.00,,,0.00,,2013-06-04 03:32:00,
2013-06-03 22:43:00,72.0,70.0,-100.00,SSW,199,0.0,0.0,94,0.00,,,0.00,,2013-06-04 03:43:00,
2013-06-03 23:13:00,70.0,68.0,-100.00,NNW,332,0.0,0.0,95,0.00,,,0.00,,2013-06-04 04:13:00,
2013-06-03 23:23:00,70.0,68.0,-100.00,NNW,332,0.0,0.0,95,0.00,,,0.00,,2013-06-04 04:23:00,
2013-06-03 23:33:00,70.0,68.0,-100.00,NNW,332,0.0,0.0,95,0.00,,,0.00,,2013-06-04 04:33:00,
2013-06-03 23:42:00,70.0,68.0,-100.00,NNW,332,0.0,0.0,95,0.00,,,0.00,,2013-06-04 04:42:00,